Weather History for Newark, NJ

Change the Weather History Date:

Wednesday, January 2, 2013

  Actual Average Record
Temperature  
Mean Temperature 30 °F 32 °F  
Max Temperature 35 °F 39 °F 63 °F (1979)
Min Temperature 24 °F 25 °F 7 °F (1968)
Degree Days  
Heating Degree Days 35 33  
Month to date heating degree days 66 65  
Since 1 July heating degree days 1675 1815  
Cooling Degree Days 0 0  
Month to date cooling degree days 0 0  
Year to date cooling degree days 0 0  
Moisture  
Dew Point 12 °F    
Average Humidity 48    
Maximum Humidity 58    
Minimum Humidity 38    
Precipitation  
Precipitation 0.00 in 0.11 in 1.51 in (1987)
Month to date precipitation T 0.23  
Year to date precipitation T 0.23  
Snow  
Snow 0.00 in 0.30 in 2.00 in (1978)
Month to date snowfall T 0.5  
Since 1 July snowfall 8.5 6.3  
Snow Depth 0.00 in    
Sea Level Pressure  
Sea Level Pressure 30.08 in    
Wind  
Wind Speed 11 mph (WNW)    
Max Wind Speed 22 mph    
Max Gust Speed 28 mph    
Visibility 10 miles    
Events      
T = Trace of Precipitation, MM = Missing Value Source: NWS Daily Summary

Daily Weather History Graph

Daily Weather History Graph

Search for Another Location

Airport:

Trip Planner

Search our weather history database for the weather conditions in past years. The results will help you decide how hot, cold, wet, or windy it might be!

Date:

Astronomy

Jan. 02, 2013 Rise Set
Actual Time 7:20 AM EST 4:41 PM EST
Civil Twilight 6:50 AM EST 5:11 PM EST
Nautical Twilight 6:15 AM EST 5:46 PM EST
Astronomical Twilight 5:42 AM EST 6:19 PM EST
Moon 10:12 PM EST (1/2) 9:59 AM EST (1/2)
Length of Visible Light 10h 21m
Length of Day
9h 20m
Waning Gibbous, 75% of the Moon is Illuminated
Jan 2
Waning Gibbous
Jan 4
Last Quarter
Jan 11
New
Jan 18
First Quarter
Jan 26
Full

Hourly Weather History & Observations

Time (EST) Temp. Windchill Dew Point Humidity Pressure Visibility Wind Dir Wind Speed Gust Speed Precip Events Conditions
12:51 AM 27.0 °F 15.2 °F 10.9 °F 51% 30.01 in 10.0 mi NW 15.0 mph 25.3 mph N/A   Mostly Cloudy
1:51 AM 26.1 °F 15.0 °F 10.9 °F 53% 30.01 in 10.0 mi NNW 12.7 mph 24.2 mph N/A   Mostly Cloudy
2:51 AM 25.0 °F 13.1 °F 10.9 °F 55% 30.04 in 10.0 mi NNW 13.8 mph - N/A   Mostly Cloudy
3:51 AM 24.1 °F 11.5 °F 9.0 °F 53% 30.02 in 10.0 mi NW 15.0 mph - N/A   Mostly Cloudy
4:51 AM 24.1 °F 12.5 °F 9.0 °F 53% 30.03 in 10.0 mi NNW 12.7 mph - N/A   Mostly Cloudy
5:51 AM 24.1 °F 16.0 °F 9.0 °F 53% 30.03 in 10.0 mi NNW 6.9 mph - N/A   Mostly Cloudy
6:51 AM 24.1 °F 19.7 °F 9.0 °F 53% 30.04 in 10.0 mi NW 3.5 mph - N/A   Mostly Cloudy
7:51 AM 25.0 °F 17.1 °F 10.0 °F 53% 30.05 in 10.0 mi WNW 6.9 mph - N/A   Mostly Cloudy
8:51 AM 25.0 °F 15.5 °F 10.0 °F 53% 30.08 in 10.0 mi West 9.2 mph - N/A   Mostly Cloudy
9:51 AM 27.0 °F 16.7 °F 10.0 °F 49% 30.09 in 10.0 mi WNW 11.5 mph - N/A   Mostly Cloudy
10:51 AM 28.9 °F 20.4 °F 10.9 °F 47% 30.08 in 10.0 mi West 9.2 mph - N/A   Mostly Cloudy
11:51 AM 30.9 °F 20.2 °F 12.0 °F 46% 30.05 in 10.0 mi WNW 15.0 mph 25.3 mph N/A   Mostly Cloudy
12:51 PM 32.0 °F 22.5 °F 12.9 °F 45% 30.04 in 10.0 mi WNW 12.7 mph 23.0 mph N/A   Mostly Cloudy
1:51 PM 34.0 °F 23.8 °F 12.9 °F 42% 30.04 in 10.0 mi WNW 16.1 mph 25.3 mph N/A   Mostly Cloudy
2:51 PM 33.8 °F 23.2 °F 10.4 °F 38% 30.06 in 10.0 mi NW 17.3 mph 26.5 mph N/A   Mostly Cloudy
3:51 PM 34.0 °F 24.6 °F 12.0 °F 40% 30.08 in 10.0 mi NW 13.8 mph 20.7 mph N/A   Mostly Cloudy
4:51 PM 32.0 °F 25.6 °F 12.9 °F 45% 30.08 in 10.0 mi NW 6.9 mph - N/A   Mostly Cloudy
5:51 PM 32.0 °F 22.5 °F 12.2 °F 44% 30.12 in 10.0 mi WNW 12.7 mph 18.4 mph N/A   Mostly Cloudy
6:51 PM 30.9 °F 21.7 °F 12.9 °F 47% 30.13 in 10.0 mi WNW 11.5 mph - N/A   Mostly Cloudy
7:51 PM 30.9 °F 24.3 °F 14.0 °F 50% 30.14 in 10.0 mi WNW 6.9 mph - N/A   Mostly Cloudy
8:51 PM 30.0 °F 21.7 °F 14.0 °F 51% 30.14 in 10.0 mi West 9.2 mph 16.1 mph N/A   Mostly Cloudy
9:51 PM 30.0 °F 24.1 °F 14.0 °F 51% 30.16 in 10.0 mi West 5.8 mph - N/A   Mostly Cloudy
10:51 PM 28.9 °F 21.1 °F 15.1 °F 56% 30.17 in 10.0 mi West 8.1 mph - N/A   Mostly Cloudy
11:51 PM 28.9 °F 20.4 °F 15.1 °F 56% 30.19 in 10.0 mi West 9.2 mph - N/A   Mostly Cloudy